QPF
0.07 0.09 0.08 0.08 0.08 0.11 0.12 0.11 0.11 0.11 0.09 0.08 0.07 0.06 0.05 0.05 0.05 0.05 0.05 0.05 0.05 0.05 0.05 0.05 0.04 0.05 0.07 0.06 0.04 0.03 0.03 0.03 0.04 0.05 0.04 0.04 0.03 0.03 0.02 0.02 0.03 0.02 0.01
0.04 0.05 0.07 0.09 0.10 0.09 0.10 0.11 0.12 0.10 0.09 0.09 0.08 0.08 0.07 0.06 0.06 0.05 0.04 0.05 0.06 0.07 0.06 0.06 0.04 0.05 0.05 0.05 0.05 0.04 0.03 0.03 0.03 0.04 0.04 0.04 0.04 0.02 0.02 0.01 0.01 0.01 0.01
0.05 0.05 0.07 0.07 0.07 0.08 0.09 0.09 0.10 0.09 0.09 0.08 0.07 0.07 0.07 0.07 0.06 0.05 0.04 0.04 0.05 0.05 0.05 0.05 0.04 0.03 0.03 0.03 0.03 0.03 0.03 0.03 0.03 0.03 0.04 0.04 0.03 0.02 0.03 0.02 0.01 0.02 0.01
0.05 0.06 0.08 0.07 0.07 0.09 0.11 0.08 0.08 0.08 0.08 0.07 0.06 0.07 0.06 0.06 0.06 0.05 0.05 0.04 0.04 0.03 0.04 0.04 0.03 0.03 0.03 0.04 0.04 0.04 0.04 0.05 0.05 0.05 0.04 0.04 0.03 0.02 0.03 0.03 0.02 0.02 0.01
0.05 0.06 0.07 0.06 0.08 0.10 0.12 0.10 0.08 0.07 0.07 0.08 0.08 0.10 0.08 0.07 0.06 0.06 0.05 0.04 0.04 0.04 0.04 0.04 0.04 0.04 0.04 0.05 0.05 0.05 0.06 0.05 0.05 0.04 0.04 0.04 0.04 0.04 0.04 0.03 0.03 0.03 0.03
0.06 0.06 0.08 0.08 0.08 0.09 0.10 0.10 0.08 0.08 0.10 0.10 0.09 0.08 0.08 0.06 0.05 0.05 0.05 0.04 0.04 0.05 0.06 0.06 0.05 0.03 0.03 0.05 0.05 0.04 0.04 0.04 0.04 0.04 0.04 0.05 0.05 0.05 0.04 0.03 0.03 0.03 0.03
0.07 0.09 0.10 0.10 0.10 0.09 0.09 0.09 0.08 0.08 0.10 0.10 0.09 0.09 0.10 0.08 0.05 0.04 0.03 0.04 0.05 0.06 0.08 0.08 0.05 0.04 0.05 0.03 0.04 0.03 0.02 0.01 0.02 0.03 0.04 0.05 0.05 0.05 0.04 0.03 0.04 0.04 0.05
0.10 0.13 0.14 0.12 0.12 0.12 0.11 0.09 0.08 0.07 0.07 0.08 0.07 0.08 0.09 0.07 0.05 0.03 0.02 0.03 0.05 0.05 0.06 0.06 0.06 0.07 0.06 0.05 0.04 0.04 0.04 0.03 0.02 0.02 0.03 0.03 0.03 0.03 0.03 0.03 0.03 0.04 0.04
0.11 0.12 0.14 0.13 0.13 0.13 0.12 0.11 0.10 0.10 0.09 0.09 0.08 0.08 0.08 0.06 0.04 0.02 0.02 0.04 0.06 0.05 0.05 0.05 0.06 0.08 0.08 0.06 0.05 0.06 0.06 0.06 0.02 0.02 0.02 0.02 0.02 0.01 0.01 0.01 0.02 0.04 0.04
0.07 0.07 0.09 0.09 0.10 0.11 0.13 0.12 0.12 0.12 0.11 0.11 0.11 0.11 0.10 0.07 0.05 0.03 0.03 0.04 0.06 0.07 0.07 0.06 0.07 0.07 0.06 0.04 0.04 0.05 0.06 0.06 0.04 0.03 0.02 0.02 0.02 0.02 0.02 0.02 0.02 0.03 0.03
0.06 0.06 0.07 0.07 0.09 0.09 0.10 0.11 0.12 0.12 0.13 0.12 0.12 0.13 0.12 0.09 0.06 0.05 0.04 0.03 0.05 0.07 0.07 0.06 0.05 0.03 0.02 0.02 0.02 0.03 0.03 0.03 0.03 0.03 0.03 0.03 0.03 0.03 0.03 0.02 0.02 0.02 0.02
0.09 0.09 0.08 0.08 0.07 0.07 0.09 0.10 0.11 0.12 0.12 0.12 0.12 0.11 0.11 0.09 0.06 0.04 0.04 0.03 0.04 0.05 0.06 0.06 0.05 0.03 0.03 0.02 0.02 0.02 0.02 0.02 0.03 0.04 0.04 0.03 0.02 0.02 0.02 0.02 0.03 0.02 0.03
0.10 0.11 0.11 0.10 0.10 0.10 0.10 0.11 0.12 0.12 0.11 0.10 0.10 0.10 0.11 0.09 0.07 0.05 0.04 0.04 0.04 0.04 0.04 0.05 0.04 0.03 0.03 0.03 0.02 0.02 0.02 0.02 0.03 0.03 0.03 0.02 0.01 0.01 0.02 0.02 0.03 0.03 0.03
0.12 0.12 0.11 0.10 0.11 0.13 0.12 0.11 0.10 0.09 0.09 0.09 0.09 0.09 0.09 0.08 0.07 0.05 0.04 0.04 0.04 0.05 0.04 0.04 0.04 0.04 0.03 0.03 0.03 0.03 0.03 0.03 0.02 0.02 0.02 0.01 0.01 0.02 0.02 0.03 0.03 0.04 0.05
0.14 0.13 0.13 0.11 0.12 0.11 0.10 0.08 0.07 0.06 0.07 0.06 0.06 0.07 0.08 0.07 0.06 0.06 0.05 0.04 0.04 0.05 0.05 0.04 0.03 0.03 0.03 0.03 0.03 0.04 0.04 0.05 0.04 0.03 0.03 0.03 0.04 0.04 0.04 0.04 0.04 0.04 0.05
0.20 0.16 0.13 0.14 0.14 0.11 0.11 0.09 0.06 0.06 0.06 0.04 0.05 0.05 0.05 0.04 0.04 0.05 0.04 0.04 0.03 0.03 0.04 0.05 0.05 0.05 0.05 0.05 0.05 0.05 0.06 0.07 0.07 0.07 0.07 0.06 0.06 0.06 0.05 0.06 0.05 0.05 0.05
0.21 0.19 0.16 0.15 0.13 0.11 0.09 0.08 0.06 0.05 0.04 0.03 0.03 0.03 0.03 0.02 0.02 0.02 0.02 0.03 0.03 0.03 0.04 0.05 0.06 0.07 0.07 0.08 0.08 0.08 0.08 0.08 0.09 0.09 0.09 0.09 0.09 0.09 0.08 0.08 0.07 0.06 0.06
0.15 0.15 0.15 0.14 0.11 0.09 0.07 0.06 0.05 0.04 0.03 0.03 0.03 0.02 0.02 0.02 0.02 0.02 0.02 0.02 0.02 0.02 0.03 0.05 0.06 0.07 0.07 0.08 0.08 0.08 0.08 0.08 0.08 0.09 0.09 0.08 0.08 0.07 0.06 0.05 0.05 0.05 0.05
0.12 0.10 0.10 0.11 0.11 0.11 0.10 0.07 0.06 0.04 0.04 0.04 0.03 0.03 0.02 0.02 0.02 0.03 0.03 0.03 0.04 0.04 0.05 0.06 0.07 0.07 0.07 0.06 0.06 0.07 0.08 0.08 0.09 0.09 0.08 0.09 0.08 0.08 0.07 0.05 0.05 0.05 0.04
0.13 0.12 0.10 0.10 0.11 0.13 0.13 0.12 0.10 0.08 0.07 0.07 0.06 0.04 0.03 0.03 0.04 0.03 0.04 0.05 0.06 0.06 0.06 0.05 0.05 0.04 0.05 0.05 0.05 0.05 0.05 0.05 0.06 0.06 0.07 0.07 0.08 0.07 0.07 0.06 0.06 0.06 0.05
0.11 0.10 0.09 0.09 0.10 0.10 0.09 0.10 0.08 0.08 0.08 0.08 0.06 0.05 0.05 0.03 0.03 0.03 0.03 0.04 0.05 0.06 0.06 0.05 0.04 0.04 0.03 0.04 0.04 0.05 0.04 0.04 0.04 0.04 0.04 0.05 0.06 0.07 0.07 0.06 0.06 0.05 0.05
0.11 0.09 0.09 0.10 0.10 0.09 0.09 0.09 0.08 0.06 0.06 0.06 0.05 0.05 0.04 0.03 0.03 0.03 0.02 0.02 0.03 0.03 0.03 0.04 0.04 0.04 0.04 0.04 0.05 0.05 0.04 0.04 0.03 0.03 0.03 0.03 0.04 0.04 0.05 0.06 0.06 0.06 0.05
0.14 0.10 0.10 0.11 0.09 0.08 0.08 0.09 0.10 0.08 0.07 0.05 0.04 0.03 0.03 0.03 0.04 0.04 0.04 0.04 0.04 0.03 0.03 0.03 0.03 0.03 0.03 0.03 0.04 0.04 0.04 0.03 0.03 0.02 0.02 0.02 0.02 0.03 0.03 0.04 0.04 0.05 0.05
0.14 0.11 0.10 0.09 0.06 0.05 0.05 0.06 0.07 0.09 0.09 0.08 0.07 0.05 0.05 0.04 0.04 0.04 0.04 0.04 0.05 0.05 0.06 0.05 0.04 0.03 0.02 0.02 0.02 0.02 0.02 0.02 0.02 0.02 0.02 0.02 0.02 0.03 0.03 0.04 0.04 0.04 0.05
0.13 0.10 0.09 0.07 0.05 0.05 0.04 0.04 0.04 0.05 0.07 0.08 0.08 0.08 0.08 0.07 0.06 0.06 0.07 0.06 0.05 0.05 0.04 0.03 0.03 0.03 0.02 0.02 0.01 0.02 0.03 0.03 0.03 0.03 0.03 0.04 0.04 0.04 0.04 0.04 0.04 0.05 0.06
0.12 0.12 0.10 0.08 0.06 0.05 0.04 0.04 0.04 0.04 0.04 0.04 0.03 0.03 0.04 0.04 0.04 0.04 0.04 0.03 0.03 0.02 0.02 0.02 0.01 0.01 0.02 0.01 0.01 0.01 0.02 0.01 0.02 0.02 0.02 0.03 0.03 0.04 0.04 0.04 0.04 0.04 0.05
MSLP
1008.61 1008.98 1009.47 1010.07 1010.73 1011.39 1012.01 1012.54 1012.97 1013.30 1013.55 1013.74 1013.92 1014.11 1014.32 1014.55 1014.80 1015.03 1015.24 1015.40 1015.50 1015.54 1015.54 1015.51 1015.47 1015.44 1015.44 1015.45 1015.49 1015.52 1015.54 1015.53 1015.47 1015.36 1015.23 1015.08 1014.95 1014.85 1014.82 1014.87 1015.00 1015.21 1015.47
1008.44 1008.77 1009.23 1009.78 1010.41 1011.05 1011.66 1012.19 1012.63 1012.98 1013.24 1013.45 1013.64 1013.83 1014.03 1014.26 1014.49 1014.72 1014.91 1015.05 1015.13 1015.15 1015.12 1015.06 1014.99 1014.93 1014.91 1014.92 1014.96 1015.02 1015.08 1015.11 1015.11 1015.07 1014.99 1014.88 1014.77 1014.68 1014.62 1014.63 1014.71 1014.85 1015.04
1008.26 1008.57 1008.98 1009.48 1010.04 1010.62 1011.17 1011.67 1012.08 1012.42 1012.69 1012.90 1013.10 1013.30 1013.52 1013.75 1013.99 1014.21 1014.41 1014.55 1014.63 1014.65 1014.62 1014.55 1014.48 1014.42 1014.39 1014.40 1014.46 1014.54 1014.63 1014.71 1014.76 1014.77 1014.73 1014.67 1014.58 1014.50 1014.43 1014.41 1014.44 1014.52 1014.64
1008.15 1008.43 1008.77 1009.19 1009.65 1010.13 1010.58 1011.00 1011.35 1011.64 1011.89 1012.10 1012.30 1012.51 1012.74 1012.99 1013.24 1013.49 1013.70 1013.87 1013.97 1014.02 1014.01 1013.97 1013.92 1013.88 1013.87 1013.90 1013.98 1014.08 1014.20 1014.31 1014.39 1014.44 1014.44 1014.41 1014.34 1014.27 1014.20 1014.16 1014.15 1014.17 1014.23
1008.17 1008.40 1008.68 1008.99 1009.32 1009.65 1009.97 1010.26 1010.51 1010.73 1010.93 1011.11 1011.30 1011.52 1011.76 1012.02 1012.29 1012.56 1012.80 1012.99 1013.14 1013.22 1013.26 1013.27 1013.27 1013.28 1013.31 1013.38 1013.48 1013.60 1013.74 1013.87 1013.98 1014.05 1014.08 1014.06 1014.02 1013.95 1013.89 1013.83 1013.80 1013.78 1013.78
1008.38 1008.57 1008.76 1008.94 1009.12 1009.29 1009.45 1009.59 1009.72 1009.84 1009.96 1010.10 1010.26 1010.46 1010.70 1010.96 1011.23 1011.51 1011.76 1011.97 1012.14 1012.27 1012.36 1012.43 1012.48 1012.55 1012.63 1012.75 1012.89 1013.04 1013.20 1013.34 1013.46 1013.54 1013.59 1013.59 1013.56 1013.51 1013.46 1013.40 1013.36 1013.31 1013.28
1008.85 1008.98 1009.07 1009.12 1009.15 1009.15 1009.15 1009.13 1009.13 1009.14 1009.18 1009.26 1009.39 1009.55 1009.76 1009.99 1010.23 1010.47 1010.70 1010.90 1011.07 1011.21 1011.32 1011.43 1011.53 1011.65 1011.79 1011.95 1012.12 1012.30 1012.48 1012.64 1012.77 1012.87 1012.92 1012.95 1012.94 1012.92 1012.89 1012.85 1012.81 1012.77 1012.72
1009.57 1009.65 1009.65 1009.59 1009.48 1009.34 1009.19 1009.05 1008.93 1008.85 1008.82 1008.84 1008.90 1009.01 1009.16 1009.32 1009.49 1009.65 1009.79 1009.92 1010.02 1010.12 1010.21 1010.31 1010.42 1010.56 1010.73 1010.92 1011.12 1011.33 1011.52 1011.70 1011.85 1011.96 1012.04 1012.10 1012.13 1012.15 1012.16 1012.16 1012.15 1012.13 1012.10
1010.53 1010.55 1010.49 1010.35 1010.14 1009.91 1009.67 1009.44 1009.25 1009.11 1009.02 1008.98 1008.99 1009.03 1009.08 1009.13 1009.17 1009.19 1009.19 1009.17 1009.15 1009.13 1009.13 1009.16 1009.23 1009.34 1009.49 1009.68 1009.89 1010.10 1010.31 1010.50 1010.67 1010.81 1010.93 1011.03 1011.11 1011.19 1011.26 1011.33 1011.38 1011.41 1011.41
1011.65 1011.64 1011.54 1011.36 1011.12 1010.85 1010.57 1010.32 1010.11 1009.95 1009.83 1009.76 1009.72 1009.67 1009.61 1009.52 1009.40 1009.23 1009.02 1008.80 1008.57 1008.37 1008.20 1008.10 1008.05 1008.08 1008.17 1008.31 1008.49 1008.69 1008.89 1009.09 1009.27 1009.44 1009.60 1009.75 1009.89 1010.04 1010.19 1010.34 1010.47 1010.58 1010.64
1012.84 1012.82 1012.72 1012.55 1012.32 1012.07 1011.83 1011.61 1011.43 1011.30 1011.20 1011.12 1011.03 1010.90 1010.73 1010.48 1010.16 1009.77 1009.33 1008.86 1008.39 1007.95 1007.57 1007.27 1007.06 1006.94 1006.91 1006.96 1007.07 1007.21 1007.38 1007.55 1007.73 1007.91 1008.10 1008.30 1008.51 1008.73 1008.96 1009.19 1009.41 1009.60 1009.75
1014.02 1014.01 1013.94 1013.81 1013.64 1013.47 1013.31 1013.17 1013.07 1013.00 1012.94 1012.87 1012.75 1012.56 1012.27 1011.88 1011.37 1010.76 1010.08 1009.36 1008.63 1007.94 1007.32 1006.80 1006.39 1006.09 1005.90 1005.81 1005.80 1005.85 1005.93 1006.05 1006.19 1006.35 1006.54 1006.75 1007.00 1007.27 1007.56 1007.87 1008.17 1008.45 1008.68
1015.10 1015.11 1015.08 1015.02 1014.94 1014.87 1014.81 1014.79 1014.79 1014.80 1014.79 1014.75 1014.62 1014.38 1014.01 1013.49 1012.83 1012.04 1011.16 1010.22 1009.27 1008.36 1007.52 1006.78 1006.17 1005.68 1005.31 1005.05 1004.88 1004.79 1004.75 1004.76 1004.81 1004.90 1005.03 1005.22 1005.45 1005.73 1006.05 1006.39 1006.75 1007.09 1007.39
1016.03 1016.06 1016.08 1016.09 1016.10 1016.13 1016.19 1016.27 1016.36 1016.45 1016.51 1016.49 1016.36 1016.10 1015.67 1015.07 1014.31 1013.40 1012.39 1011.31 1010.21 1009.14 1008.15 1007.25 1006.46 1005.80 1005.26 1004.82 1004.47 1004.20 1004.00 1003.85 1003.75 1003.71 1003.72 1003.81 1003.97 1004.19 1004.47 1004.81 1005.17 1005.54 1005.89
1016.80 1016.84 1016.89 1016.95 1017.04 1017.15 1017.28 1017.44 1017.61 1017.75 1017.85 1017.86 1017.73 1017.46 1017.01 1016.38 1015.58 1014.64 1013.59 1012.47 1011.32 1010.20 1009.13 1008.14 1007.26 1006.47 1005.78 1005.19 1004.66 1004.20 1003.80 1003.44 1003.14 1002.91 1002.75 1002.67 1002.68 1002.77 1002.95 1003.21 1003.52 1003.86 1004.22
1017.43 1017.46 1017.52 1017.60 1017.72 1017.87 1018.04 1018.24 1018.43 1018.60 1018.70 1018.70 1018.58 1018.30 1017.86 1017.25 1016.49 1015.59 1014.60 1013.53 1012.45 1011.38 1010.34 1009.37 1008.46 1007.62 1006.85 1006.13 1005.45 1004.80 1004.19 1003.61 1003.08 1002.61 1002.21 1001.91 1001.71 1001.61 1001.62 1001.73 1001.93 1002.19 1002.50
1017.96 1017.97 1018.00 1018.08 1018.19 1018.33 1018.50 1018.68 1018.85 1018.99 1019.06 1019.04 1018.90 1018.63 1018.21 1017.65 1016.97 1016.18 1015.32 1014.40 1013.47 1012.54 1011.63 1010.75 1009.91 1009.09 1008.29 1007.50 1006.70 1005.90 1005.10 1004.30 1003.53 1002.81 1002.15 1001.59 1001.14 1000.81 1000.61 1000.52 1000.56 1000.69 1000.90
1018.46 1018.41 1018.41 1018.44 1018.52 1018.62 1018.74 1018.87 1018.98 1019.05 1019.06 1018.98 1018.81 1018.53 1018.14 1017.65 1017.08 1016.43 1015.74 1015.02 1014.29 1013.57 1012.85 1012.13 1011.41 1010.68 1009.91 1009.10 1008.24 1007.32 1006.37 1005.39 1004.41 1003.45 1002.55 1001.74 1001.03 1000.45 1000.01 999.71 999.54 999.50 999.58
1018.95 1018.85 1018.80 1018.78 1018.80 1018.84 1018.89 1018.93 1018.96 1018.94 1018.86 1018.71 1018.49 1018.19 1017.83 1017.40 1016.93 1016.42 1015.91 1015.40 1014.89 1014.38 1013.87 1013.35 1012.79 1012.18 1011.49 1010.71 1009.83 1008.86 1007.81 1006.70 1005.56 1004.42 1003.32 1002.29 1001.36 1000.55 999.89 999.37 999.00 998.77 998.69
1019.46 1019.32 1019.22 1019.15 1019.11 1019.08 1019.05 1019.01 1018.94 1018.82 1018.66 1018.43 1018.15 1017.83 1017.46 1017.08 1016.68 1016.30 1015.94 1015.59 1015.28 1014.97 1014.65 1014.31 1013.90 1013.42 1012.83 1012.11 1011.27 1010.30 1009.21 1008.04 1006.81 1005.56 1004.32 1003.14 1002.04 1001.06 1000.21 999.50 998.95 998.55 998.31
1020.00 1019.83 1019.69 1019.58 1019.49 1019.41 1019.32 1019.20 1019.05 1018.85 1018.60 1018.31 1017.97 1017.60 1017.23 1016.86 1016.51 1016.20 1015.93 1015.71 1015.52 1015.35 1015.17 1014.96 1014.68 1014.30 1013.81 1013.17 1012.38 1011.45 1010.39 1009.22 1007.98 1006.69 1005.40 1004.14 1002.95 1001.86 1000.89 1000.05 999.36 998.82 998.43
1020.56 1020.37 1020.21 1020.08 1019.96 1019.84 1019.71 1019.54 1019.33 1019.08 1018.77 1018.42 1018.04 1017.64 1017.24 1016.86 1016.52 1016.23 1016.00 1015.82 1015.69 1015.58 1015.47 1015.33 1015.12 1014.81 1014.39 1013.82 1013.10 1012.24 1011.24 1010.13 1008.93 1007.67 1006.40 1005.15 1003.95 1002.82 1001.80 1000.89 1000.11 999.47 998.97
1021.11 1020.93 1020.77 1020.63 1020.50 1020.37 1020.22 1020.03 1019.79 1019.51 1019.18 1018.80 1018.39 1017.97 1017.55 1017.15 1016.79 1016.48 1016.22 1016.03 1015.88 1015.76 1015.64 1015.49 1015.29 1015.01 1014.62 1014.09 1013.44 1012.65 1011.73 1010.70 1009.59 1008.42 1007.22 1006.03 1004.88 1003.79 1002.77 1001.85 1001.05 1000.36 999.80
1021.66 1021.48 1021.33 1021.20 1021.07 1020.94 1020.78 1020.59 1020.36 1020.08 1019.75 1019.37 1018.96 1018.53 1018.09 1017.67 1017.28 1016.93 1016.62 1016.37 1016.15 1015.96 1015.78 1015.58 1015.33 1015.02 1014.62 1014.12 1013.50 1012.77 1011.93 1010.99 1009.98 1008.92 1007.83 1006.74 1005.67 1004.65 1003.68 1002.80 1002.01 1001.32 1000.74
1022.19 1022.03 1021.88 1021.75 1021.62 1021.49 1021.34 1021.17 1020.95 1020.69 1020.38 1020.03 1019.64 1019.22 1018.79 1018.36 1017.94 1017.54 1017.18 1016.84 1016.54 1016.26 1015.98 1015.69 1015.37 1015.00 1014.57 1014.06 1013.45 1012.75 1011.97 1011.12 1010.20 1009.23 1008.25 1007.26 1006.28 1005.35 1004.46 1003.64 1002.90 1002.24 1001.67
1022.70 1022.54 1022.40 1022.26 1022.13 1022.00 1021.85 1021.68 1021.48 1021.25 1020.97 1020.66 1020.31 1019.93 1019.52 1019.10 1018.67 1018.25 1017.83 1017.44 1017.05 1016.68 1016.31 1015.93 1015.53 1015.09 1014.60 1014.06 1013.45 1012.77 1012.02 1011.21 1010.36 1009.47 1008.56 1007.65 1006.76 1005.91 1005.10 1004.34 1003.66 1003.05 1002.52
Thickness
5772 5769 5768 5765 5762 5760 5758 5757 5755 5754 5752 5750 5749 5747 5745 5743 5742 5740 5739 5739 5737 5736 5736 5735 5734 5735 5734 5734 5736 5735 5733 5730 5723 5726 5730 5730 5729 5727 5724 5723 5722 5720 5718
5773 5770 5767 5764 5762 5759 5758 5757 5756 5753 5751 5750 5749 5746 5744 5742 5741 5739 5738 5738 5736 5734 5734 5734 5733 5734 5732 5732 5732 5732 5731 5730 5725 5721 5723 5725 5725 5725 5723 5722 5721 5721 5720
5773 5769 5765 5763 5761 5760 5758 5757 5755 5752 5750 5749 5747 5745 5743 5742 5739 5739 5738 5737 5736 5735 5734 5733 5732 5731 5728 5729 5728 5728 5728 5729 5726 5722 5721 5723 5723 5723 5721 5720 5721 5720 5720
5773 5768 5764 5762 5761 5760 5758 5755 5753 5751 5749 5748 5746 5744 5742 5741 5739 5737 5736 5735 5735 5734 5733 5732 5731 5729 5727 5726 5725 5724 5724 5722 5722 5720 5718 5718 5719 5720 5718 5715 5714 5716 5716
5771 5767 5763 5762 5761 5758 5756 5753 5752 5750 5748 5746 5744 5742 5740 5739 5738 5735 5734 5733 5732 5731 5731 5730 5729 5728 5726 5724 5723 5721 5719 5717 5716 5715 5714 5714 5713 5712 5711 5712 5710 5711 5712
5768 5765 5763 5761 5758 5756 5754 5752 5750 5748 5747 5745 5742 5740 5738 5738 5737 5734 5732 5731 5729 5728 5727 5726 5726 5725 5723 5721 5719 5718 5715 5713 5711 5709 5709 5709 5710 5710 5710 5709 5706 5703 5701
5764 5762 5760 5758 5755 5754 5752 5750 5747 5745 5743 5741 5740 5738 5735 5734 5733 5731 5729 5728 5726 5725 5724 5723 5723 5725 5722 5720 5716 5714 5712 5711 5709 5707 5705 5704 5705 5706 5704 5702 5700 5698 5696
5759 5757 5756 5754 5752 5750 5748 5746 5745 5743 5740 5738 5737 5736 5733 5731 5729 5727 5725 5724 5724 5723 5722 5721 5719 5718 5719 5717 5714 5712 5710 5709 5708 5706 5705 5704 5703 5702 5701 5699 5697 5695 5696
5753 5752 5752 5750 5748 5746 5744 5743 5741 5739 5736 5735 5734 5732 5729 5727 5725 5723 5721 5720 5719 5719 5719 5718 5717 5715 5714 5712 5710 5708 5707 5706 5707 5705 5703 5701 5699 5697 5695 5692 5690 5686 5684
5750 5750 5749 5747 5745 5742 5741 5739 5738 5735 5733 5731 5729 5728 5726 5723 5720 5718 5716 5716 5715 5714 5714 5714 5713 5711 5710 5708 5706 5704 5701 5701 5701 5700 5698 5696 5694 5692 5690 5686 5683 5679 5677
5748 5747 5745 5743 5741 5739 5737 5735 5732 5730 5728 5726 5724 5722 5721 5719 5716 5713 5711 5711 5711 5710 5710 5710 5709 5706 5704 5702 5701 5700 5697 5696 5695 5694 5692 5691 5689 5687 5685 5682 5679 5675 5671
5743 5741 5738 5737 5737 5735 5731 5728 5727 5724 5721 5719 5717 5715 5715 5714 5712 5708 5705 5704 5705 5705 5705 5705 5703 5701 5699 5697 5694 5693 5691 5689 5687 5686 5684 5682 5682 5681 5680 5678 5675 5672 5669
5736 5734 5732 5731 5730 5728 5725 5721 5719 5717 5715 5713 5710 5708 5708 5708 5706 5703 5700 5699 5699 5698 5698 5696 5695 5693 5691 5689 5686 5685 5682 5680 5678 5676 5675 5674 5674 5674 5673 5671 5669 5666 5662
5728 5727 5726 5723 5721 5718 5716 5714 5711 5709 5707 5706 5704 5702 5701 5700 5698 5696 5694 5692 5690 5689 5688 5687 5686 5684 5682 5680 5679 5676 5674 5672 5670 5667 5666 5666 5666 5664 5662 5661 5658 5655 5651
5722 5721 5720 5716 5713 5708 5704 5701 5701 5698 5698 5699 5698 5696 5694 5691 5689 5689 5689 5688 5686 5685 5682 5680 5678 5676 5674 5672 5671 5669 5667 5664 5660 5658 5656 5655 5654 5652 5650 5649 5646 5644 5640
5715 5715 5713 5710 5705 5701 5695 5690 5687 5688 5688 5689 5689 5687 5684 5682 5681 5681 5680 5679 5678 5677 5675 5672 5669 5666 5664 5662 5661 5659 5657 5654 5651 5648 5645 5643 5641 5639 5637 5636 5634 5631 5627
5707 5706 5705 5702 5699 5695 5691 5687 5682 5678 5677 5676 5676 5676 5674 5672 5671 5670 5669 5668 5666 5665 5663 5660 5657 5655 5653 5651 5649 5647 5644 5642 5640 5637 5634 5631 5628 5626 5624 5622 5621 5618 5616
5701 5699 5697 5695 5692 5689 5686 5683 5680 5676 5672 5668 5664 5662 5662 5661 5660 5659 5658 5657 5654 5652 5650 5648 5645 5643 5640 5638 5635 5632 5630 5628 5626 5624 5622 5619 5616 5614 5611 5610 5609 5606 5603
5692 5691 5690 5689 5685 5682 5681 5678 5675 5671 5666 5662 5658 5653 5650 5649 5648 5646 5645 5644 5643 5640 5637 5634 5632 5629 5626 5623 5620 5618 5615 5612 5610 5608 5606 5603 5601 5600 5598 5596 5595 5593 5589
5683 5682 5682 5680 5677 5674 5672 5669 5665 5662 5658 5653 5649 5645 5641 5640 5638 5634 5632 5631 5629 5626 5623 5619 5616 5613 5610 5607 5605 5602 5599 5596 5594 5591 5589 5587 5585 5584 5583 5582 5580 5578 5576
5675 5672 5671 5670 5667 5665 5662 5659 5655 5652 5648 5643 5638 5633 5630 5630 5627 5623 5619 5616 5613 5610 5606 5603 5600 5596 5593 5589 5587 5585 5582 5578 5575 5573 5571 5570 5569 5568 5567 5566 5565 5564 5562
5664 5662 5660 5657 5655 5653 5650 5647 5643 5640 5636 5632 5626 5622 5618 5616 5612 5608 5603 5600 5596 5593 5589 5586 5583 5578 5574 5571 5568 5565 5562 5559 5556 5554 5553 5553 5552 5551 5550 5550 5549 5548 5547
5652 5650 5647 5644 5642 5638 5637 5634 5630 5626 5622 5618 5614 5610 5606 5601 5596 5592 5588 5584 5581 5577 5573 5570 5565 5561 5557 5553 5549 5545 5542 5538 5536 5535 5534 5534 5534 5534 5534 5533 5532 5531 5531
5638 5636 5633 5631 5628 5625 5622 5618 5615 5612 5608 5603 5599 5594 5590 5585 5581 5577 5573 5569 5565 5561 5557 5553 5548 5544 5540 5536 5531 5527 5523 5520 5519 5518 5517 5517 5518 5518 5518 5518 5518 5517 5516
5625 5623 5620 5617 5615 5611 5608 5605 5601 5597 5593 5589 5584 5579 5575 5571 5567 5562 5557 5554 5550 5546 5542 5537 5533 5528 5524 5519 5515 5511 5508 5506 5504 5503 5502 5503 5504 5504 5504 5504 5504 5503 5503
5611 5609 5605 5603 5600 5597 5594 5590 5586 5582 5578 5574 5569 5565 5561 5557 5552 5547 5543 5539 5535 5531 5527 5523 5518 5513 5509 5504 5500 5497 5495 5494 5493 5491 5490 5490 5491 5492 5491 5490 5491 5490 5490